Home   Weather   Rennes   Past weeks

Flag for France Past Weather in Rennes, Brittany, France — Yesterday and Last 2 Weeks

Now
61 °F

Passing clouds.


Feels Like: 61 °F
Forecast: 46 / 56 °F
Wind: 15 mph from Southeast

Location: Rennes Airport

Current Time: Apr 29, 2017 at 5:38:03 pm

Latest Report: Apr 29, 2017 at 5:00 pm


Visibility: N/A

Pressure: 29.83 "Hg

Humidity: 39%

Dew Point: 36 °F

Location of RennesLocation

Past Weather in Rennes — Graph

°F

Rennes Temperature Yesterday

Maximum temperature yesterday: 55 °F (at 2:30 pm)
Minimum temperature yesterday: 37 °F (at 12:30 am)
Average temperature yesterday: 47 °F

High & Low Weather Summary for the Past Weeks

 TemperatureHumidityPressure
High66 °F (Apr 22, 2:00 pm)100% (Apr 17, 1:00 am)30.60 "Hg (Apr 17, 1:00 am)
Low30 °F (Apr 26, 4:00 am)24% (Apr 21, 5:00 pm)29.83 "Hg (Apr 29, 4:30 pm)
Average49 °F69%30.23 "Hg
* Reported Apr 14 4:00 pm — Apr 29 4:30 pm, Rennes, Weather by CustomWeather, © 2017

Note: Actual official high and low records may vary slightly from our data, if they occured in-between our weather recording intervals... More about our weather records

Advertising

Rennes Weather History for the Previous 24 Hours

Scroll right to see more
 ConditionsComfort  
Time TempWeatherWind HumidityBarometerVisibility
4:30 pm
Sat, Apr 29
61 °FSunny.16 mph39%29.83 "Hg10 mi
4:00 pm63 °FPassing clouds.14 mph42%29.86 "HgN/A
3:30 pm63 °FSunny.14 mph42%29.86 "Hg10 mi
2:30 pm61 °FPassing clouds.13 mph42%29.89 "HgN/A
2:00 pm61 °FPassing clouds.14 mph45%29.89 "HgN/A
1:30 pm61 °FPartly sunny.15 mph42%29.92 "HgN/A
1:00 pm61 °FPartly sunny.12 mph48%29.92 "HgN/A
12:30 pm59 °FPartly sunny.12 mph51%29.95 "HgN/A
12:00 pm59 °FScattered clouds.12 mph55%29.95 "HgN/A
11:30 am57 °FPassing clouds.9 mph59%29.95 "HgN/A
11:00 am55 °FPassing clouds.9 mph63%29.98 "HgN/A
10:30 am54 °FPassing clouds.5 mph67%29.98 "HgN/A
9:30 am46 °FPassing clouds.5 mph82%30.01 "HgN/A
9:00 am45 °FSunny.3 mph87%30.01 "Hg10 mi
8:30 am39 °FClear.No wind100%30.01 "Hg4 mi
8:00 am37 °FFog.2 mph93%30.01 "Hg2 mi
7:30 am36 °FFog.3 mph93%30.01 "Hg3 mi
7:00 am34 °FFog.No wind100%30.01 "Hg2 mi
6:30 am36 °FFog.2 mph100%30.01 "Hg3 mi
6:00 am36 °FClear.3 mph100%30.01 "Hg4 mi
5:30 am36 °FClear.3 mph100%30.04 "Hg4 mi
5:00 am36 °FClear.3 mph100%30.04 "Hg4 mi
4:30 am37 °FClear.3 mph100%30.04 "Hg6 mi
4:00 am37 °FClear.5 mph100%30.04 "Hg5 mi
3:30 am39 °FClear.No wind93%30.07 "Hg5 mi
3:00 am41 °FClear.1 mph93%30.07 "Hg4 mi
2:30 am39 °FLight fog.No wind100%30.07 "Hg4 mi
2:00 am41 °FLight fog.No wind93%30.07 "Hg5 mi
1:30 am43 °FClear.2 mph93%30.07 "Hg10 mi
1:00 am43 °FClear.3 mph93%30.07 "Hg10 mi
12:30 am45 °FClear.2 mph87%30.07 "Hg10 mi
12:00 am45 °FClear.3 mph81%30.07 "Hg10 mi
11:30 pm
Fri, Apr 28
46 °FClear.No wind87%30.09 "Hg10 mi
11:00 pm46 °FClear.3 mph82%30.09 "Hg10 mi
10:30 pm48 °FClear.2 mph76%30.07 "Hg10 mi
10:00 pm48 °FClear.No wind76%30.07 "Hg10 mi
9:30 pm50 °FMostly cloudy.3 mph71%30.07 "HgN/A
9:00 pm52 °FMostly cloudy.2 mph67%30.07 "HgN/A
8:30 pm52 °FMostly cloudy.3 mph67%30.07 "HgN/A
8:00 pm54 °FMostly cloudy.5 mph63%30.07 "HgN/A
7:30 pm54 °FOvercast.2 mph72%30.07 "HgN/A
7:00 pm54 °FOvercast.3 mph72%30.07 "HgN/A
6:30 pm54 °FBroken clouds.2 mph72%30.07 "HgN/A
6:00 pm54 °FMostly cloudy.3 mph67%30.07 "HgN/A
5:30 pm54 °FMore clouds than sun.3 mph67%30.07 "HgN/A
5:00 pm54 °FMostly cloudy.2 mph63%30.07 "HgN/A
Weather by CustomWeather, © 2017

See weather overviewHow to use our weather pages